Regional Weather Roundup
Issued by NWS

Home | Current Version | Previous Version | Text Only | Print | Product List | Glossary On
Versions: 1 2 3 4 5 6 7 8 9 10 11 12 13 14 15 16 17 18 19 20 21 22 23 24 25 26 27 28 29 30 31 32 33 34 35 36 37 38 39 40 41 42 43 44 45 46 47 48 49 50
000
ASUS43 KMKX 181200
RWRWI

WISCONSIN REGIONAL WEATHER ROUNDUP
NATIONAL WEATHER SERVICE MILWAUKEE/SULLIVAN WI
700 AM CDT FRI APR 18 2014

NOTE: "FAIR" INDICATES FEW OR NO CLOUDS BELOW 12,000 FEET WITH NO
SIGNIFICANT WEATHER AND/OR OBSTRUCTIONS TO VISIBILITY.

WIZ001-002-006>008-014>016-023>028-181300-
NORTHWEST WISCONSIN

CITY           SKY/WX    TMP DP  RH WIND       PRES   REMARKS
SUPERIOR ARPT  CLEAR     20  19  96 CALM      30.37R
ASHLAND        MOCLDY    21  20  96 W5        30.37R WCI  15
6HR MIN TEMP:  20; 6HR MAX TEMP:  26;

HAYWARD        CLOUDY    17  11  77 CALM      30.36R
6HR MIN TEMP:  15; 6HR MAX TEMP:  20;

SIREN          CLOUDY    18  15  90 CALM      30.37R
RICE LAKE      PTCLDY    20  19  93 N3        30.37R
LADYSMITH      PTCLDY    20  19  95 CALM      30.36R
EAU CLAIRE     NOT AVBL
MENOMONIE      MOSUNNY   26  25  96 CALM      30.36R FOG
NEW RICHMOND   CLOUDY    27  27 100 CALM      30.36R FOG
OSCEOLA        MOCLDY    20  20 100 CALM      30.38R FOG
$$

WIZ003>005-009-010-017-018-181300-
NORTH CENTRAL WISCONSIN

CITY           SKY/WX    TMP DP  RH WIND       PRES   REMARKS
WOODRUFF       FOG       17  14  85 CALM      30.31R VSB 1/4
RHINELANDER    CLEAR     24  20  84 NW3       30.32R
6HR MIN TEMP:  17; 6HR MAX TEMP:  31;

EAGLE RIVER    FOG       18  17  97 CALM      30.30R VSB 1
LAND O LAKES   CLOUDY    24  23  97 W3        30.31R
PHILLIPS       FOG      N/A N/A N/A CALM      30.32R VSB<1/4
TOMAHAWK       CLEAR     20  19  93 CALM      30.32R
MEDFORD        CLEAR     24  23  95 CALM      30.32R
MERRILL        CLEAR     23  22  96 CALM      30.33R
$$

WIZ029-030-035-036-043>047-181300-
CENTRAL WISCONSIN

CITY           SKY/WX    TMP DP  RH WIND       PRES   REMARKS
WAUSAU         CLEAR     27  24  89 CALM      30.32R
6HR MIN TEMP:  27; 6HR MAX TEMP:  34;

MOSINEE        CLEAR     36  27  69 MISG      30.34R
MARSHFIELD     CLEAR     29  25  85 NW3       30.33R
6HR MIN TEMP:  27; 6HR MAX TEMP:  34;

STEVENS POINT  CLEAR     25  23  92 CALM      30.35R
WAUPACA        CLEAR     30  25  80 CALM      30.35R
WAUTOMA        NOT AVBL
WISC RAPIDS    CLEAR     27  24  89 CALM      30.36R
6HR MIN TEMP:  26; 6HR MAX TEMP:  35;

CAMP DOUGLAS   NOT AVBL
$$

WIZ011>013-019>022-031-037>040-048>050-181300-
NORTHEAST WISCONSIN

CITY           SKY/WX    TMP DP  RH WIND       PRES   REMARKS
ANTIGO         CLEAR     24  22  93 CALM      30.31R
STURGEON BAY   CLOUDY    34  27  75 N5        30.34R WCI  30
6HR MIN TEMP:  34; 6HR MAX TEMP:  37;

GREEN BAY      CLOUDY    35  27  72 N7        30.35R WCI  29
6HR MIN TEMP:  35; 6HR MAX TEMP:  37;

MANITOWOC      NOT AVBL
APPLETON       MOCLDY    34  27  75 NW7       30.34R WCI  28
CLINTONVILLE   CLEAR     30  25  80 CALM      30.34R
OSHKOSH        CLOUDY    35  27  72 N7        30.34R WCI  29
6HR MIN TEMP:  31; 6HR MAX TEMP:  35;

$$

WIZ032>034-041-042-053>061-181300-
SOUTHWEST WISCONSIN

CITY           SKY/WX    TMP DP  RH WIND       PRES   REMARKS
LA CROSSE      MOCLDY    29  26  89 CALM      30.37R
6HR MIN TEMP:  28; 6HR MAX TEMP:  37;

SPARTA         CLEAR     22  21  98 CALM      30.37R
VIROQUA        FAIR      29  26  90 CALM      30.34R
BOSCOBEL       FAIR      26  24  92 CALM      30.37R FOG
6HR MIN TEMP:  25; 6HR MAX TEMP:  30;

PRAIRIE DU CHI CLEAR     28  26  92 CALM      30.36R FOG
PLATTEVILLE    FAIR      31  28  90 N6        30.34R WCI  25
$$

WIZ056-057-062-063-064-067-068-181300-
SOUTH CENTRAL WISCONSIN

CITY           SKY/WX    TMP DP  RH WIND       PRES   REMARKS
BARABOO/DELLS  PTCLDY    31  28  86 CALM      30.34R
LONE ROCK      CLEAR     28  27  93 W6        30.36R FOG     WCI  22
WATERTOWN      MOCLDY    33  30  90 N5        30.32R WCI  28
MADISON        CLEAR     30  28  92 N5        30.34R WCI  25
6HR MIN TEMP:  27; 6HR MAX TEMP:  33;

MIDDLETON      FAIR      28  28  97 CALM      30.34R
MONROE         CLEAR    N/A N/A N/A N6        30.31R
JANESVILLE     CLEAR     36  30  80 CALM      30.02F
$$

WIZ051-052-058>065-066-070>072-181300-
SOUTHEAST WISCONSIN

CITY           SKY/WX    TMP DP  RH WIND       PRES   REMARKS
MILWAUKEE      PTCLDY    38  31  76 N7        30.33R WCI  33
6HR MIN TEMP:  36; 6HR MAX TEMP:  43;

WAUKESHA       MOCLDY    34  30  86 CALM      30.33R
MILWAUKEE/TIMM MOCLDY    36  30  80 N6        30.33R WCI  31
RACINE         CLEAR     38  33  82 N10       30.32R WCI  31
6HR MIN TEMP:  37; 6HR MAX TEMP:  42;

BURLINGTON     CLEAR     32  31  95 N5        30.31R WCI  28
KENOSHA        CLEAR     36  32  85 N5        30.31R WCI  32
6HR MIN TEMP:  35; 6HR MAX TEMP:  42;

FOND DU LAC    CLOUDY    32  29  88 CALM      30.34R
6HR MIN TEMP:  30; 6HR MAX TEMP:  34;

SHEBOYGAN      CLOUDY    36  30  79 N8        30.34R WCI  30
6HR MIN TEMP:  35; 6HR MAX TEMP:  37;

WEST BEND      CLOUDY    34  30  86 N3        30.32R
JUNEAU         CLEAR     31  28  89 N3        30.34R
$$

LSZ147-162-181300-
LAKE SUPERIOR

STATION/POSITION TIME  TEMP    WIND        PRES    WAVE
                       AIR SEA DIR/SP/G            HT/PER
                 (UTC) (F)     (DEG/KT/KT) (MB)    (FT/S)
DEVILS ISLAND    1100   31     330/ 11/ 12 1028.9R
PORT WING        1100   23     150/  2/  2 1028.4R
SAXON HARBOR     1100          220/  2/  4 1027.8R
$$

LMZ867-665-643>646-181300-
LAKE MICHIGAN

STATION/POSITION TIME  TEMP    WIND        PRES    WAVE
                       AIR SEA DIR/SP/G            HT/PER
                 (UTC) (F)     (DEG/KT/KT) (MB)    (FT/S)
NORTHPORT PIER   1100   33     310/  5/  8 1026.8R
SISTER BAY       1109   33      30/  6/  6   N/A
KEWAUNEE LAKESHO 1100   36     350/  5/  8 1027.3R
SHEBOYGAN LAKESH 1100   39     340/ 10/ 12 1027.3R
PORT WASHINGTON  1100   37     320/  5/  8 1027.1R
MILWAUKEE LAKESH 1100   38     340/  9/ 12   N/A
KENOSHA   LAKESH 1100   39     360/  9/ 11   N/A
$$

TC  - TEMPERATURE IN CELSIUS
VSB - VISIBILITY IN STATUTE MILES
WCI - WIND CHILL INDEX
HX  - HEAT INDEX




USA.gov is the U.S. government's official web portal to all federal, state and local government web resources and services.